Jilin-1 GaoFen 03D 16 xing

operational
NORAD ID: 51834 Int'l Des: 2022-019 Owner: CGSTL Country: CN Constellation: jilin-1
LEOCIRCULARRETROGRADE

关于 Jilin-1 GaoFen 03D 16 xing

正在加载描述...

实时位置

正在加载3D地球...

即将过境

高度历史

Altitude vs Time

uPlot chart will show altitude changes over time

两行轨道根数

1 51834U 22019L 26062.20634617 .00256257 00000-0 11725-2 0 9995
2 51834 97.3706 156.2766 0003963 190.2782 169.8407 15.83044167223548
Epoch: Mar 3, 2026 • Age: 13 hours

当前状态

高度 332.9 km
速度 7.71 km/s
星下点 -36.39°S, 31.85°W
发射日期 Feb 27, 2022
运行时间 4 years
类型 earth observation

技术详情

分类 Payload
质量 43.00 kg
干质量 43.00 kg
总质量 43.00 kg
长度 1.50 m
直径 1.00 m
跨度 1.50 m
形状 Box
制造商 CGSTL
平台类型 JL-1
阶段状态 In Orbit
所有者/国家 CGSTL/CN

大型星座

Loading constellations...